Temp
8 8 8 8 8 9 9 9 9 10 10 10 10 10 10 9 10 11 10 15 15 14 15 14 14 15 15 14 15 14 14 15 17 16 18 18 20 20 19 19 18 18 16 17 18
7 7 7 7 7 7 8 9 9 9 9 10 10 9 9 9 9 9 15 14 14 14 14 14 13 14 13 14 15 14 14 17 17 17 18 19 19 19 20 19 18 18 16 15 15
6 6 6 6 6 7 7 7 8 8 9 9 10 9 9 9 9 12 14 13 14 14 14 14 14 14 14 14 14 15 15 17 17 18 18 19 19 17 18 18 17 17 16 14 14
5 5 6 6 6 6 6 7 7 7 8 8 9 10 10 10 14 14 13 13 13 14 13 13 14 13 13 14 15 15 15 17 17 18 18 18 17 18 17 18 16 16 15 14 14
6 5 5 5 6 6 6 6 7 7 8 8 8 9 10 10 10 14 13 13 13 12 13 13 13 13 13 13 15 14 15 16 16 16 16 17 16 16 15 16 16 15 15 14 15
5 5 5 6 6 6 6 6 6 6 8 9 9 9 10 10 13 14 13 13 12 12 12 12 13 14 14 14 14 15 15 16 16 16 16 16 15 15 15 15 14 14 14 13 13
5 5 5 5 5 5 5 6 6 7 9 11 9 9 9 10 13 13 13 13 12 12 12 13 14 14 15 15 15 16 16 15 14 14 15 15 14 13 14 15 14 13 12 12 12
4 4 4 4 4 5 5 6 7 7 10 10 9 8 8 12 12 13 13 12 12 12 13 14 14 14 14 14 15 15 15 14 16 14 15 15 16 16 14 12 13 12 11 11 12
4 4 4 4 4 5 7 9 10 11 10 9 9 9 9 12 12 12 12 12 12 12 13 14 14 13 14 13 13 13 12 12 13 13 14 13 14 15 13 10 11 10 9 10 10
4 4 4 4 4 7 8 10 10 10 9 9 9 9 11 12 12 12 12 12 12 12 13 13 10 10 10 12 12 12 12 13 13 14 12 12 13 13 12 12 10 9 9 9 10
4 4 4 4 5 6 9 10 6 7 8 9 8 9 12 11 12 12 12 12 12 12 10 11 10 9 11 12 13 13 12 13 14 13 13 11 13 13 12 11 11 10 9 8 10
4 4 4 4 6 7 7 5 5 5 6 8 7 7 9 11 11 11 12 11 11 10 10 10 9 11 12 11 12 12 12 11 12 13 11 11 11 12 12 13 14 13 10 10 10
4 4 4 4 7 6 5 4 5 5 7 7 9 10 11 10 10 10 10 10 10 10 9 8 12 12 11 11 10 11 11 12 12 13 12 11 11 12 12 12 12 11 13 12 11
4 4 4 4 6 4 5 5 6 6 3 9 11 11 11 11 11 10 10 11 10 10 9 9 11 12 10 11 11 10 11 12 12 13 9 11 9 12 14 13 12 12 10 12 11
3 4 4 4 4 4 4 5 6 6 4 11 11 12 11 11 10 10 10 11 11 11 10 10 11 11 11 11 11 11 13 11 12 11 10 10 8 12 14 15 15 14 10 10 11
3 3 4 4 4 4 4 5 6 2 5 7 10 10 11 11 11 10 10 11 11 11 10 9 10 11 11 11 11 11 11 10 8 8 4 10 10 13 13 16 17 15 11 9 8
3 3 4 4 2 4 5 4 2 2 5 6 8 9 10 10 10 9 9 8 8 7 9 10 10 10 11 11 11 11 11 8 6 4 6 9 9 13 15 14 15 15 13 8 7
3 4 5 4 4 5 5 2 2 -5 -3 6 8 8 8 10 9 9 8 7 7 9 6 8 9 9 9 11 10 10 11 8 8 6 8 9 8 12 14 13 12 12 12 8 7
3 4 4 4 4 5 2 -1 -1 -1 5 7 7 3 3 6 8 9 7 7 8 7 7 7 9 9 9 9 10 9 8 11 7 -0 4 9 10 11 12 12 12 11 8 7 6
3 2 4 4 4 4 -0 2 1 5 5 5 5 2 0 2 6 8 7 8 9 7 9 10 7 8 8 9 8 8 10 10 6 7 5 8 9 13 16 15 13 11 9 7 6
2 -2 4 4 4 -0 -2 -3 3 4 3 4 5 5 6 5 5 4 8 8 5 7 8 9 8 8 8 7 7 7 5 7 9 7 5 5 10 10 14 13 12 11 9 7 5
0 -4 3 4 -2 -10 -5 1 4 3 3 3 4 4 4 2 1 5 6 7 3 3 5 8 7 6 7 8 8 8 7 8 9 7 6 5 11 12 12 11 11 10 9 7 6
-4 -3 2 3 -6 -8 -5 2 2 2 3 3 3 3 2 -0 1 2 3 4 4 3 2 4 4 2 7 7 7 7 7 8 5 6 10 5 10 10 11 12 10 9 8 7 6
-4 -4 -5 -5 -4 -2 -5 -3 1 2 2 3 2 2 -0 -3 0 -3 2 3 2 4 4 5 5 3 8 9 7 6 8 9 7 7 8 10 11 13 12 10 9 9 8 7 5
-3 -4 -5 -6 -5 -3 -1 -0 1 -2 1 2 1 1 -1 -4 -5 -4 -1 0 2 3 2 1 1 4 3 6 7 7 7 8 8 9 8 10 9 10 11 11 12 5 7 5 5
-3 -2 -3 -6 -3 -1 -1 -2 1 -1 -0 1 -1 2 -1 -4 -2 -5 -4 -3 -0 -1 -0 1 -0 1 2 6 7 7 8 6 8 9 8 9 8 9 9 8 5 6 3 4 4
-0 -1 -1 0 -2 -2 -1 -1 -0 1 1 2 1 -2 -0 0 -2 -1 0 1 -1 -3 -3 -2 1 1 1 4 6 7 7 8 5 4 6 6 8 10 9 9 8 8 3 4 4
Height
815 813 810 808 804 801 798 796 793 791 789 786 783 780 776 774 772 771 769 764 763 765 765 768 770 771 774 775 774 774 787 783 772 776 766 759 757 753 752 754 755 755 758 755 761
814 811 808 806 802 799 797 794 791 789 786 784 780 778 775 773 771 766 760 761 762 764 765 767 769 772 776 774 772 775 781 768 761 763 763 759 759 757 755 756 757 757 759 756 760
813 810 807 803 800 797 794 791 788 786 784 782 779 775 774 772 771 760 757 759 762 764 765 767 768 770 774 773 771 769 767 760 759 758 759 758 758 759 758 760 756 756 757 759 761
812 809 806 802 798 795 792 789 786 783 781 779 777 775 773 773 770 759 759 760 763 764 766 768 769 772 772 773 767 770 761 760 758 756 758 759 757 757 758 754 752 752 754 756 761
811 808 804 800 796 792 788 785 783 780 777 777 775 774 774 774 767 760 760 761 762 764 765 767 770 769 770 769 767 767 761 758 757 758 759 757 758 758 757 752 751 753 756 757 758
811 807 802 798 793 788 784 781 778 775 773 773 773 774 774 775 761 760 760 760 762 763 764 766 767 766 765 764 766 759 758 757 758 758 757 759 758 758 751 749 754 755 757 757 756
811 806 801 796 790 785 780 776 773 770 769 769 770 772 772 766 760 760 760 761 761 762 763 764 765 766 763 762 758 757 760 758 758 759 758 759 761 756 749 749 752 754 754 755 754
811 805 800 794 787 780 775 770 767 765 765 766 767 770 769 759 759 759 760 760 761 762 763 763 764 764 763 760 760 761 761 768 752 757 755 757 744 743 744 751 750 749 750 750 750
810 804 798 792 784 776 770 765 762 762 763 765 768 769 767 760 759 759 759 760 761 762 763 763 763 764 763 768 770 768 769 768 761 755 755 760 746 740 745 751 747 750 749 747 747
809 803 797 790 782 774 768 765 763 763 765 767 768 772 762 761 759 759 760 761 762 762 763 763 770 773 773 770 767 764 770 764 763 755 760 761 747 743 745 745 747 749 747 745 745
808 802 795 789 782 775 767 766 771 770 768 768 769 768 760 761 760 761 761 763 763 765 771 767 775 774 762 763 760 761 764 762 756 754 757 760 747 740 740 743 742 742 743 743 739
808 802 794 788 782 778 773 777 789 790 778 766 765 766 760 761 762 760 762 765 766 771 770 775 776 760 759 765 765 765 766 767 759 755 762 755 748 737 735 730 725 727 733 733 736
808 802 794 787 783 782 783 787 788 786 783 768 761 759 758 759 761 760 761 764 766 771 774 778 758 752 759 763 768 766 765 763 761 756 758 758 746 733 719 719 719 718 715 720 724
808 802 794 786 787 786 785 785 785 784 801 770 759 758 758 757 759 759 760 763 765 767 771 772 758 753 762 761 763 768 757 755 760 760 779 757 775 727 714 713 714 709 715 712 716
808 803 797 792 792 790 791 785 783 784 823 764 759 758 757 759 761 760 760 760 763 760 768 761 754 757 758 755 757 760 749 758 756 764 768 764 783 726 715 709 700 696 704 706 707
809 803 799 795 794 793 788 785 784 814 818 776 761 760 760 759 759 761 761 761 761 760 760 762 756 755 752 754 754 753 755 765 775 777 818 762 766 719 714 697 687 686 696 700 705
808 803 800 798 797 790 787 786 816 827 788 785 773 764 763 761 759 763 765 768 771 780 770 756 756 752 752 752 755 755 759 783 805 823 792 759 761 716 695 691 687 686 689 698 703
807 802 799 798 795 791 788 801 832 846 832 783 772 770 770 760 760 763 766 772 768 767 782 772 760 755 751 747 752 759 752 779 791 797 772 760 757 711 685 686 686 686 688 696 702
807 801 799 798 794 791 795 836 829 824 792 782 777 796 796 777 770 763 770 772 763 765 774 775 757 753 752 751 750 760 766 749 780 830 800 747 727 704 684 686 685 687 692 695 698
808 804 800 798 793 792 809 810 813 797 795 790 791 801 818 801 780 768 770 762 756 757 752 751 769 756 754 753 756 759 751 758 787 791 800 753 739 704 680 675 681 685 688 694 697
810 811 803 798 795 802 828 829 803 802 801 798 791 793 786 787 786 789 768 762 773 763 758 754 760 758 756 758 755 764 776 765 757 773 788 784 723 699 678 682 683 686 688 692 696
815 825 804 801 815 840 835 812 803 804 802 801 799 797 795 801 806 786 778 767 785 782 775 760 757 764 755 744 744 744 748 748 748 765 767 773 707 687 684 687 686 685 687 690 694
822 821 807 806 841 849 831 812 809 808 805 802 801 801 805 814 811 796 789 783 787 787 793 779 775 794 753 751 748 748 743 740 755 751 730 772 711 691 690 687 688 689 690 692 695
822 832 820 815 822 824 837 830 817 808 808 804 803 802 811 823 808 817 797 787 786 785 784 778 765 775 740 733 741 745 731 726 738 746 729 711 698 690 681 687 690 689 690 695 697
820 827 825 838 830 823 820 819 815 825 810 807 807 805 812 832 829 824 807 798 791 786 790 796 792 768 766 745 741 736 733 725 726 713 728 686 704 701 692 687 675 694 690 694 696
821 821 821 826 819 818 818 822 811 815 815 806 811 800 807 822 810 824 815 812 800 799 797 791 796 785 765 739 729 731 727 731 715 709 709 700 697 694 691 691 694 688 695 692 693
810 811 813 807 812 815 811 810 804 802 801 798 799 808 800 795 801 797 795 793 796 803 807 803 789 787 776 748 736 719 704 710 723 726 713 717 679 682 682 680 678 678 690 687 685
Wind_Speed
16 17 17 18 20 21 20 20 20 19 19 20 21 20 19 14 14 10 6 7 5 7 8 5 6 6 4 3 4 3 1 8 9 8 6 5 3 1 1 4 3 1 6 4 28
17 18 21 21 21 22 23 23 22 22 22 22 22 21 15 11 14 11 14 7 7 10 6 8 5 6 3 4 4 4 6 9 4 5 4 2 1 3 1 2 1 1 1 16 31
18 19 20 22 22 23 24 23 24 23 23 23 23 19 11 8 4 5 4 9 9 7 4 5 5 5 3 4 5 5 9 7 3 4 3 2 2 2 2 4 5 7 6 11 18
19 20 20 21 22 22 23 24 24 23 23 22 21 16 6 2 4 1 3 8 8 6 5 4 3 5 5 6 5 3 7 4 7 3 2 3 2 3 4 4 5 7 8 12 13
20 21 22 23 23 24 24 24 25 24 22 20 19 12 3 1 7 2 4 6 7 6 7 5 4 4 5 5 2 5 4 5 7 7 5 1 6 5 6 6 1 2 4 10 14
22 24 25 26 26 27 27 27 27 25 22 17 14 7 1 3 1 2 4 5 6 8 5 6 5 4 3 4 10 3 6 11 5 5 4 5 5 5 6 6 7 6 10 10 9
24 25 26 27 29 29 29 27 25 22 16 12 7 6 2 10 3 2 3 3 6 7 3 7 4 2 2 3 2 3 4 4 5 5 7 4 9 14 7 6 10 11 10 10 12
24 25 27 29 30 31 29 27 24 17 9 4 3 7 6 3 5 5 5 4 5 7 5 3 7 3 2 4 4 2 2 3 3 8 4 9 23 3 8 8 13 11 11 11 13
26 28 30 32 32 30 26 21 13 4 2 5 6 3 7 2 3 6 5 2 2 5 4 2 2 3 1 2 3 3 4 6 6 8 4 6 11 4 2 7 10 10 10 9 9
28 29 32 34 32 25 22 7 11 9 7 6 1 2 3 2 0 1 3 3 1 2 0 2 3 2 1 5 7 5 3 3 5 2 2 4 19 8 7 4 8 8 9 9 10
28 31 33 33 26 22 16 1 6 5 6 3 3 4 2 1 1 1 1 2 2 3 4 2 3 11 12 2 2 2 3 3 3 3 4 8 19 14 10 6 10 9 8 9 14
30 32 35 32 15 19 20 6 5 5 8 5 7 7 16 6 4 2 5 4 3 4 2 3 9 8 4 5 6 6 3 5 6 3 5 6 14 13 10 12 14 15 11 13 6
30 33 35 29 7 8 14 12 15 7 3 7 5 3 2 7 5 4 8 3 4 4 6 6 4 1 9 5 6 8 10 6 7 3 4 5 10 7 8 12 8 10 11 11 17
29 33 31 24 2 12 2 22 19 1 4 5 1 1 1 1 2 2 7 2 1 6 5 6 5 3 3 5 7 4 7 11 7 2 4 1 6 5 5 9 7 12 12 14 14
29 31 27 16 10 4 17 21 12 2 4 4 2 3 2 1 0 1 3 2 3 2 5 6 2 4 6 6 8 7 1 5 3 3 2 3 2 7 2 7 10 11 11 13 16
28 29 20 13 11 17 21 16 1 6 5 3 2 2 3 1 1 1 1 1 2 3 4 7 2 3 4 2 1 4 5 5 3 2 2 8 8 7 5 10 7 2 7 11 12
27 27 11 12 11 22 16 3 5 5 4 6 3 4 2 2 3 4 3 4 4 2 4 2 4 3 3 3 2 1 4 2 4 3 6 1 4 12 7 9 6 5 6 8 9
26 27 5 8 23 18 7 5 4 2 5 4 4 5 4 1 4 2 2 3 5 2 1 4 5 7 4 5 6 6 7 4 7 4 4 2 7 7 7 9 8 8 5 7 9
27 24 4 13 24 12 4 3 6 5 5 6 5 5 5 4 1 1 4 4 5 9 8 4 5 1 2 1 1 5 4 4 3 2 2 4 7 10 8 10 7 7 6 9 10
23 13 7 20 17 4 4 4 1 5 7 5 2 3 1 5 6 3 2 3 4 10 3 3 4 1 1 1 0 2 2 3 3 3 5 5 6 6 6 8 5 6 8 8 7
9 4 10 21 7 4 3 5 1 5 5 4 3 4 3 3 2 2 4 4 10 9 4 3 5 2 2 6 8 2 1 2 5 4 4 2 6 7 10 6 7 8 8 8 8
4 3 15 19 4 1 2 3 7 2 2 3 2 3 2 6 3 4 5 1 10 4 7 5 4 4 9 4 4 4 8 8 5 6 4 3 11 3 3 6 5 7 7 6 7
1 2 4 6 2 2 5 3 2 1 3 2 2 1 2 1 3 2 5 4 11 11 6 8 4 1 5 3 2 5 6 4 3 3 14 3 6 2 4 4 6 7 6 7 6
2 3 4 4 1 5 2 4 3 2 4 4 3 0 2 2 2 5 6 7 7 9 16 6 5 6 10 4 2 5 10 16 6 4 9 21 16 16 17 11 6 6 4 6 6
1 4 4 3 3 2 3 3 4 4 3 2 3 5 5 1 3 5 4 3 5 4 3 4 5 6 16 20 7 5 7 15 17 23 10 21 20 16 19 20 21 3 3 5 7
3 2 2 2 2 3 5 4 11 9 4 7 7 9 5 6 9 6 3 1 5 4 3 1 4 12 14 17 19 18 11 10 20 18 26 19 22 12 13 7 6 8 4 7 9
7 3 2 5 4 4 5 7 10 7 8 15 12 5 8 15 7 13 11 11 7 5 1 3 2 4 6 12 17 13 28 17 6 8 12 15 25 11 18 16 19 16 9 10 11
Wind_Direction
359 355 349 344 345 345 342 340 339 338 335 333 334 327 318 312 307 292 238 230 215 186 148 157 178 175 162 211 203 137 161 227 220 175 233 290 274 90 348 130 63 51 168 186 159
345 339 346 342 339 339 336 335 334 333 334 332 333 327 313 311 306 257 259 230 210 197 198 180 169 149 173 208 205 171 207 228 194 205 227 265 252 327 127 172 68 129 24 137 150
350 343 339 340 335 331 329 327 328 327 329 331 333 331 314 314 316 255 316 192 193 193 218 196 153 147 200 171 212 204 231 233 262 227 199 218 242 304 143 243 220 200 169 155 153
354 350 346 342 336 331 327 326 323 320 322 327 334 334 318 320 304 327 140 184 199 199 179 173 162 162 186 208 216 240 232 240 230 249 227 232 281 294 182 233 332 234 173 159 169
352 349 346 341 337 332 326 322 318 315 315 319 330 327 319 311 255 263 173 182 200 202 191 177 172 170 184 197 231 245 250 227 230 240 237 236 230 236 251 226 308 65 182 190 182
347 343 339 334 330 326 321 318 313 307 305 308 323 304 233 259 279 210 220 213 206 194 199 191 215 219 236 229 190 256 203 251 227 229 222 210 256 136 248 243 233 170 210 216 199
342 340 336 331 327 323 317 316 313 304 296 302 302 222 213 242 242 228 223 245 221 206 181 217 237 221 202 253 213 249 261 273 223 210 223 162 272 232 213 211 224 209 210 217 219
350 347 342 337 330 325 320 315 311 298 293 297 204 176 244 250 233 238 229 251 227 205 229 231 224 255 232 325 346 231 174 217 251 165 230 160 257 224 218 194 234 227 210 206 215
350 347 343 338 334 329 327 326 317 307 135 142 133 157 273 286 234 242 219 251 191 206 235 262 191 200 75 78 331 261 230 222 321 202 151 185 264 234 89 209 236 228 226 212 217
349 347 344 340 336 337 337 42 63 96 91 142 26 26 288 308 21 167 195 190 129 130 64 125 50 106 170 164 223 203 226 244 229 247 226 229 258 256 246 248 252 245 229 220 214
349 346 344 342 341 354 354 34 17 352 30 277 306 287 336 0 99 51 159 137 71 67 174 267 137 219 207 246 256 184 194 240 247 230 190 232 255 261 264 261 261 242 229 226 224
349 346 344 342 349 27 51 69 33 316 312 244 256 243 257 244 309 244 171 162 143 210 134 44 239 226 167 195 236 245 272 261 284 241 188 287 270 264 254 249 234 230 222 219 210
349 347 344 342 357 29 59 43 349 343 273 299 238 244 314 155 215 256 152 160 186 199 200 180 242 304 183 176 199 234 235 244 235 328 242 325 283 240 257 241 234 226 224 208 205
349 349 350 348 31 351 32 343 346 218 59 286 348 322 161 187 213 7 183 164 236 226 183 237 266 212 179 215 169 251 214 229 232 168 236 95 279 260 254 258 223 234 208 211 202
349 352 354 9 338 28 324 328 340 137 19 265 332 313 12 139 273 1 188 111 219 213 127 247 250 205 204 221 164 230 127 186 199 187 17 200 7 269 261 278 256 235 214 207 199
345 349 353 4 352 331 328 327 48 43 260 335 322 3 349 259 228 70 142 327 251 249 214 241 270 221 205 96 309 139 69 51 54 91 316 208 179 268 204 224 250 214 218 202 187
341 343 340 14 338 336 334 6 33 129 315 314 344 3 325 262 279 177 171 184 203 99 246 258 220 204 173 131 65 241 97 305 339 351 227 40 207 244 252 262 249 256 250 203 176
338 336 291 317 343 343 346 52 104 250 244 318 320 304 226 273 251 188 166 258 229 129 97 207 295 173 192 203 181 205 157 197 211 216 266 122 235 244 251 269 253 249 218 169 170
340 344 352 344 339 345 67 65 208 210 290 334 343 52 311 343 331 270 213 223 234 176 184 193 270 50 97 1 128 189 220 182 71 84 32 234 278 288 272 252 252 257 185 185 175
340 334 326 344 340 1 72 238 120 26 333 342 216 129 281 314 358 6 280 218 266 197 174 277 298 44 76 85 51 183 173 109 78 266 269 274 273 238 299 275 243 242 216 192 174
348 7 345 347 355 47 152 226 349 33 359 334 344 320 302 301 262 313 285 347 349 340 215 351 180 219 125 202 182 147 250 44 131 185 221 282 259 219 237 342 251 250 224 199 182
13 0 341 353 46 358 68 342 336 319 20 331 331 350 321 12 318 264 260 50 16 313 350 301 238 235 220 230 219 210 199 176 176 213 239 170 253 200 267 301 302 263 237 205 191
98 267 332 9 98 339 315 307 282 294 298 329 281 169 83 214 322 305 339 64 28 23 7 339 294 332 301 340 348 223 191 202 121 97 234 176 264 333 297 303 334 291 260 229 204
72 346 321 41 113 131 100 289 299 277 274 262 288 51 88 327 245 277 313 309 360 3 14 323 234 211 246 258 107 227 205 200 156 199 228 235 257 292 294 282 281 306 260 243 205
102 243 193 284 305 175 158 182 269 281 262 243 291 222 191 239 310 254 267 321 326 322 67 57 283 331 313 284 256 243 277 218 205 226 202 252 237 244 252 274 288 235 219 194 221
154 199 192 204 214 184 242 210 245 255 194 253 225 244 199 188 206 248 246 193 221 322 40 87 270 322 305 293 248 251 251 232 226 227 235 256 269 228 262 265 267 261 230 217 217
199 193 160 208 187 180 203 217 228 241 233 242 246 191 227 242 222 240 250 265 234 175 219 237 267 341 276 343 301 238 225 224 201 220 222 234 245 254 258 244 245 243 205 219 215